Weather History for Kenosha, WI

Change the Weather History Date:

Sunday, November 6, 2011

  Actual Average Record
Temperature  
Mean Temperature 50 °F -  
Max Temperature 59 °F 48 °F 64 °F (1948)
Min Temperature 44 °F 32 °F 14 °F (1991)
Degree Days  
Heating Degree Days 14    
Moisture  
Dew Point 41 °F    
Average Humidity 66    
Maximum Humidity 77    
Minimum Humidity 56    
Precipitation  
Precipitation 0.00 in - - ()
Sea Level Pressure  
Sea Level Pressure 30.01 in    
Wind  
Wind Speed 12 mph (SSW)    
Max Wind Speed 20 mph    
Max Gust Speed 34 mph    
Visibility 8 miles    
Events      
Averages and records for this station are not official NWS values.
T = Trace of Precipitation, MM = Missing Value Source: NWS Daily Summary

Daily Weather History Graph

Daily Weather History Graph

Search for Another Location

Airport:

Trip Planner

Search our weather history database for the weather conditions in past years. The results will help you decide how hot, cold, wet, or windy it might be!

Date:

Astronomy

Nov. 06, 2011 Rise Set
Actual Time 6:31 AM CST 4:38 PM CST
Civil Twilight 6:01 AM CST 5:08 PM CST
Nautical Twilight 5:28 AM CST 5:41 PM CST
Astronomical Twilight 4:55 AM CST 6:14 PM CST
Moon 2:26 PM CST (11/6) 2:33 AM CST (11/6)
Length of Visible Light 11h 06m
Length of Day
10h 07m
Waxing Gibbous, 86% of the Moon is Illuminated
Nov 6
Waxing Gibbous
Nov 10
Full
Nov 18
Last Quarter
Nov 25
New
Dec 2
First Quarter

Hourly Weather History & Observations

Time (CST) Temp. Windchill Dew Point Humidity Pressure Visibility Wind Dir Wind Speed Gust Speed Precip Events Conditions
12:53 AM 44.1 °F 39.5 °F 30.9 °F 60% 30.04 in 10.0 mi South 8.1 mph - N/A   Clear
1:53 AM 45.0 °F 39.7 °F 30.0 °F 56% 30.04 in 10.0 mi South 10.4 mph - N/A   Clear
1:53 AM 45.0 °F 39.3 °F 30.0 °F 56% 30.03 in 10.0 mi South 11.5 mph - N/A   Clear
2:53 AM 45.0 °F 39.3 °F 32.0 °F 60% 30.02 in 10.0 mi South 11.5 mph - N/A   Clear
3:53 AM 45.0 °F 40.1 °F 34.0 °F 65% 30.03 in 10.0 mi South 9.2 mph - N/A   Clear
4:53 AM 45.0 °F 40.6 °F 36.0 °F 71% 30.02 in 9.0 mi South 8.1 mph - N/A   Clear
5:53 AM 46.9 °F - 39.0 °F 74% 30.01 in 7.0 mi South 11.5 mph - N/A   Clear
6:53 AM 46.9 °F - 39.9 °F 77% 30.00 in 5.0 mi South 12.7 mph - N/A   Clear
7:53 AM 50.0 °F - 41.0 °F 71% 30.00 in 5.0 mi South 11.5 mph - N/A   Haze
8:53 AM 55.0 °F - 44.1 °F 67% 29.99 in 6.0 mi SSW 11.5 mph 21.9 mph N/A   Haze
9:53 AM 57.0 °F - 45.0 °F 64% 29.99 in 6.0 mi SSW 17.3 mph 28.8 mph N/A   Haze
10:53 AM 57.0 °F - 45.0 °F 64% 29.98 in 6.0 mi SSW 19.6 mph 31.1 mph N/A   Haze
11:53 AM 57.0 °F - 46.0 °F 67% 29.97 in 6.0 mi SSW 17.3 mph 25.3 mph N/A   Haze
12:53 PM 57.0 °F - 46.0 °F 67% 29.96 in 6.0 mi SSW 19.6 mph 29.9 mph N/A   Haze
1:53 PM 57.0 °F - 46.0 °F 67% 29.96 in 7.0 mi SSW 19.6 mph 34.5 mph N/A   Mostly Cloudy
2:09 PM 57.2 °F - 46.4 °F 67% 29.95 in 7.0 mi SSW 19.6 mph 27.6 mph N/A   Overcast
2:53 PM 57.9 °F - 46.0 °F 65% 29.96 in 7.0 mi SSW 15.0 mph 25.3 mph N/A   Overcast
3:53 PM 57.0 °F - 45.0 °F 64% 29.98 in 7.0 mi SSW 16.1 mph 25.3 mph N/A   Overcast
4:53 PM 55.9 °F - 45.0 °F 67% 29.99 in 7.0 mi SSW 16.1 mph 27.6 mph N/A   Mostly Cloudy
5:53 PM 55.0 °F - 45.0 °F 69% 30.01 in 8.0 mi SSW 13.8 mph 23.0 mph N/A   Mostly Cloudy
6:53 PM 55.9 °F - 45.0 °F 67% 30.02 in 9.0 mi SSW 15.0 mph 25.3 mph N/A   Mostly Cloudy
7:53 PM 55.9 °F - 44.1 °F 64% 30.03 in 9.0 mi SSW 15.0 mph 24.2 mph N/A   Partly Cloudy
8:53 PM 55.0 °F - 44.1 °F 67% 30.04 in 10.0 mi SSW 12.7 mph - N/A   Mostly Cloudy
9:53 PM 54.0 °F - 44.1 °F 69% 30.06 in 10.0 mi SW 11.5 mph - N/A   Clear
10:53 PM 53.1 °F - 44.1 °F 71% 30.08 in 10.0 mi SW 10.4 mph - N/A   Scattered Clouds